Location: Arbon
(43.0005°N, 0.7472°E)
Time: 23:00:28
(UTC+00:00)

Courier 1B Rocket - Pass Details

Date: 26 November 2020
Orbit: 920 x 1202 km, 28.2° (Epoch: 24 January)

Event Time Altitude Azimuth Distance (km) Brightness Sun altitude
Rises 05:01:18 0° 201° (SSW) 4,086 8.1 -21.9°
Reaches altitude 10° 05:07:04 10° 169° (SSE) 3,108 7.9 -20.8°
Maximum altitude 05:08:54 11° 155° (SSE) 3,027 8.0 -20.5°
Drops below altitude 10° 05:10:43 10° 141° (SE) 3,086 8.3 -20.2°
Sets 05:16:20 0° 108° (ESE) 3,994 9.8 -19.2°
